User: anonymous   Login
Location: Unspecified
(43.4354°N, 0.0000°E)
Time: 14:42:43
(UTC+00:00)
Language:

Courier 1B - Orbit

View from above orbital plane
View from above orbital plane
View from above satellite
View from above satellite

Ground track
Ground track

The orbit data is extracted from the following two-line orbital elements,

1    58U 60013A   19294.10544680  .00000093  00000-0  71620-5 0  9999
2    58  28.3278 233.9752 0165032 239.3823 119.0352 13.46319416906737
Epoch (UTC): 21 October 2019 02:31:50
Eccentricity: 0.0165032
inclination: 28.3278°
perigee height: 962 km
apogee height: 1209 km
right ascension of ascending node: 233.9752°
argument of perigee: 239.3823°
revolutions per day: 13.46319416
mean anomaly at epoch: 119.0352°
orbit number at epoch: 90673

The dashed part of the orbit path shows where the satellite is in the earth's shadow,  

DLR